This demonstration page uses our WeatherBlox Daily Observations layout. Learn more.

Left ArrowRight Arrow

38.89511, -77.03637

Hourly Observations for May 4, 2017

Temp ( °F °C ) Dew Point ( °F °C ) Humidity (%) Winds ( mph kmh ) Pressure ( in mb ) Visibility ( mi km ) Precip ( " mm )
12:52 am 00:52 Mostly Clear 57 13.9 41 5 55 55 Calm 30.19 1022 10 16 0.00 0.00
1:52 am 01:52 Partly Cloudy 56 13.3 42 5.6 60 60 NE 3 6 30.19 1022 10 16 0.00 0.00
2:52 am 02:52 Partly Cloudy 55 12.8 42 5.6 62 62 ENE 5 7 30.19 1022 10 16 0.00 0.00
3:52 am 03:52 Clear 55 12.8 42 5.6 62 62 NNE 6 9 30.19 1023 10 16 0.00 0.00
4:52 am 04:52 Mostly Cloudy 53 11.7 45 7.2 74 74 NE 10 17 30.19 1022 10 16 0.00 0.00
5:52 am 05:52 Partly Cloudy 55 12.8 43 6.1 64 64 E 10 17 30.19 1023 10 16 0.00 0.00
6:52 am 06:52 Mostly Sunny 55 12.8 41 5 59 59 E 9 15 30.20 1023 10 16 0.00 0.00
7:52 am 07:52 Mostly Sunny 57 13.9 40 4.4 53 53 E 10 17 30.23 1024 10 16 0.00 0.00
8:52 am 08:52 Mostly Cloudy 58 14.4 42 5.6 56 56 E 10 17 30.21 1023 10 16 0.00 0.00
9:52 am 09:52 Cloudy 60 15.6 44 6.7 56 56 E 15 24 30.21 1023 10 16 0.00 0.00
10:52 am 10:52 Cloudy 62 16.7 42 5.6 48 48 ESE 14 22 30.19 1023 10 16 0.00 0.00
11:52 am 11:52 Cloudy 64 17.8 44 6.7 48 48 SE 15 24 30.19 1022 10 16 0.00 0.00
12:52 pm 12:52 Cloudy 65 18.3 44 6.7 47 47 SE 17 28 30.15 1021 10 16 0.00 0.00
1:52 pm 13:52 Cloudy 66 18.9 45 7.2 47 47 ESE 20 31 30.14 1021 10 16 0.00 0.00
2:52 pm 14:52 Cloudy 65 18.3 46 7.8 51 51 SE 15 24 30.12 1020 10 16 0.00 0.00
3:52 pm 15:52 Cloudy 66 18.9 47 8.3 50 50 SE 9 15 30.09 1019 10 16 0.00 0.00
4:52 pm 16:52 Cloudy 66 18.9 48 8.9 52 52 undefined N/A 30.06 1018 10 16 0.00 0.00
5:00 pm 17:00 Cloudy 66 19 46 8 49 49 SE 15 24 30.06 1018 10 16 0.00 0.00
5:22 pm 17:22 Cloudy 66 19 46 8 49 49 ESE 15 24 30.06 1018 10 16 0.00 0.00
5:52 pm 17:52 Cloudy 65 18.3 48 8.9 54 54 ESE 16 26 30.04 1017 10 16 0.00 0.00
6:52 pm 18:52 Cloudy 64 17.8 48 8.9 56 56 SE 13 20 30.02 1017 10 16 0.00 0.00
7:39 pm 19:39 Cloudy 64 17.8 49 9.4 58 58 E 17 28 30.03 1017 10 16 0.00 0.00
7:52 pm 19:52 Cloudy 64 17.8 49 9.4 58 58 E 16 26 30.02 1017 10 16 0.00 0.00
8:33 pm 20:33 Cloudy with Light Rain 62 16.7 50 10 65 65 ESE 17 28 30.03 1017 10 16 0.00 0.03
8:52 pm 20:52 Cloudy with Light Rain 61 16.1 50 10 67 67 E 14 22 30.01 1016 10 16 0.01 0.25
9:52 pm 21:52 Cloudy with Rain 58 14.4 52 11.1 81 81 E 15 24 29.99 1016 6 10 0.02 0.51
10:52 pm 22:52 Cloudy with Light Rain 57 13.9 54 12.2 90 90 ENE 10 17 29.96 1015 10 16 0.03 0.76
11:21 pm 23:21 Cloudy with Light Rain 56 13.3 54 12.2 93 93 E 12 19 29.94 1014 10 16 0.01 0.25
11:52 pm 23:52 Cloudy with Light Rain 56 13.3 54 12.2 93 93 E 8 13 29.92 1013 6 10 0.04 1.02

Powered by AerisWeather